EA1BIS-13 Weather Reports


time (UTC)temp
F
wind
direction
speed
knots
gust
knots
rain 1hr
in
rain 24hr
in
rain mn
in
humidity
%
barometer
mb
20260508055934 42 153 0.0 0.0 0.00 0.00 0.00 91 1010.3
20260508054424 42 153 0.0 0.9 0.00 0.00 0.00 91 1010.4
20260508052915 42 31 0.0 0.0 0.00 0.00 0.00 91 1010.2
20260508051427 42 32 0.0 0.0 0.00 0.00 0.00 91 1010.2
20260508045919 41 32 0.0 0.0 0.00 0.00 0.00 91 1010.0
20260508044431 41 31 0.0 0.0 0.00 0.00 0.00 91 1010.1
20260508042922 41 32 0.0 0.0 0.00 0.00 0.00 90 1010.0
20260508041414 41 31 0.0 0.0 0.00 0.00 0.00 91 1009.9
20260508035926 41 32 0.0 0.0 0.00 0.00 0.00 91 1010.0
20260508034436 41 31 0.0 0.0 0.00 0.00 0.00 91 1010.1
20260508032928 42 31 0.0 0.0 0.00 0.00 0.00 90 1010.1
20260508031420 42 31 0.0 0.0 0.00 0.00 0.00 90 1010.3
20260508025931 43 32 0.0 0.0 0.00 0.00 0.00 89 1010.3
20260508024422 43 32 0.0 0.0 0.00 0.00 0.00 90 1010.4
20260508022934 44 32 0.0 0.0 0.00 0.00 0.00 89 1010.6
20260508021424 44 31 0.0 0.0 0.00 0.00 0.00 89 1010.7
20260508015920 45 31 0.0 0.0 0.00 0.00 0.00 89 1011.0
20260508014447 45 31 0.0 0.0 0.00 0.00 0.00 88 1011.0
20260508012921 46 32 0.0 0.0 0.00 0.00 0.00 87 1011.2
20260508011434 46 31 0.0 0.0 0.00 0.00 0.00 87 1011.4
20260508005952 47 31 0.0 0.0 0.00 0.00 0.00 86 1011.5
20260508004424 47 32 0.0 0.0 0.00 0.00 0.00 84 1011.5
20260508002935 48 31 0.0 0.0 0.00 0.00 0.00 84 1011.4
20260508001444 48 31 0.0 0.0 0.00 0.00 0.00 83 1011.5
20260507235938 48 31 0.0 0.0 0.00 0.00 0.00 82 1011.6
20260507234428 48 31 0.0 0.9 0.00 0.00 0.00 81 1011.4
20260507232917 48 16 0.0 0.9 0.00 0.00 0.00 82 1011.8
20260507231428 48 16 0.0 0.0 0.00 0.00 0.00 81 1011.9
20260507225921 48 52 0.0 0.9 0.00 0.00 0.00 81 1011.8
20260507224431 48 53 0.0 0.9 0.00 0.00 0.00 80 1012.0
20260507222941 48 34 0.0 0.0 0.00 0.00 0.00 79 1012.0
20260507221431 49 34 0.0 0.9 0.00 0.00 0.00 78 1011.9
20260507215922 49 37 0.0 0.0 0.00 0.00 0.00 79 1012.0
20260507214434 49 38 0.0 0.0 0.00 0.00 0.00 78 1011.9
20260507212917 49 39 0.0 0.0 0.00 0.00 0.00 78 1011.9
20260507211428 49 332 0.0 0.9 0.00 0.00 0.00 79 1011.9
20260507205919 49 208 0.0 0.9 0.00 0.00 0.00 79 1011.8
20260507204451 48 211 0.0 0.0 0.00 0.00 0.00 80 1011.7
20260507202922 49 213 0.0 0.0 0.00 0.00 0.00 79 1011.3
20260507201453 49 212 0.0 0.0 0.00 0.00 0.00 77 1011.0
20260507195924 50 212 0.0 0.9 0.00 0.00 0.00 75 1010.9
20260507194416 50 212 0.0 0.9 0.00 0.00 0.00 74 1010.8
20260507192928 52 107 0.0 0.0 0.00 0.00 0.00 71 1010.6
20260507191420 54 107 0.0 0.9 0.00 0.00 0.00 71 1010.4
20260507185931 55 142 0.0 0.0 0.00 0.00 0.00 70 1010.2
20260507184424 56 142 0.0 1.7 0.00 0.00 0.00 61 1010.3
20260507182915 57 129 0.0 4.3 0.00 0.00 0.00 58 1010.0
20260507181427 57 183 0.9 5.2 0.00 0.00 0.00 57 1009.8
20260507175922 57 217 2.6 8.7 0.00 0.00 0.00 55 1009.4
20260507174434 59 212 0.0 3.5 0.00 0.00 0.00 53 1009.1
20260507172927 59 229 0.0 3.5 0.00 0.00 0.00 52 1008.9
20260507171418 61 41 0.9 9.6 0.00 0.00 0.00 51 1009.0
20260507165930 62 120 1.7 7.0 0.00 0.00 0.00 47 1008.9
20260507164422 61 233 4.3 7.8 0.00 0.00 0.00 49 1008.7
20260507162954 61 221 3.5 7.0 0.00 0.00 0.00 44 1008.6
20260507161424 63 163 1.7 5.2 0.00 0.00 0.00 43 1008.6
20260507155937 62 145 0.9 6.1 0.00 0.00 0.00 44 1008.6
20260507154448 63 219 2.6 7.0 0.00 0.00 0.00 44 1008.7
20260507152916 64 141 3.5 7.0 0.00 0.00 0.00 42 1008.6
20260507151448 64 135 3.5 6.1 0.00 0.00 0.00 42 1008.6
20260507145956 64 207 2.6 7.8 0.00 0.00 0.00 44 1008.6
20260507144425 64 131 0.0 4.3 0.00 0.00 0.00 44 1008.8
20260507142937 64 134 1.7 7.0 0.00 0.00 0.00 42 1009.1
20260507141429 63 207 2.6 7.0 0.00 0.00 0.00 48 1009.1
20260507135918 60 179 0.9 3.5 0.00 0.00 0.00 47 1009.3
20260507134429 61 138 1.7 6.1 0.00 0.00 0.00 46 1009.4
20260507132922 63 152 0.9 8.7 0.00 0.00 0.00 44 1009.4
20260507131433 64 146 0.0 4.3 0.00 0.00 0.00 44 1009.5
20260507124425 62 222 5.2 9.6 0.00 0.00 0.00 45 1009.9
20260507122916 61 196 0.9 3.5 0.00 0.00 0.00 49 1010.1
20260507121428 62 191 2.6 5.2 0.00 0.00 0.00 46 1010.3
20260507115920 60 284 0.9 4.3 0.00 0.00 0.00 50 1010.4
20260507114416 60 215 1.7 4.3 0.00 0.00 0.00 49 1010.7
20260507112928 60 217 0.0 5.2 0.00 0.00 0.00 51 1010.7
20260507111420 61 259 0.9 2.6 0.00 0.00 0.00 52 1010.8
20260507105932 61 136 0.0 0.9 0.00 0.00 0.00 51 1010.8
20260507104424 59 136 0.9 4.3 0.00 0.00 0.00 54 1011.0
20260507102935 58 181 0.9 2.6 0.00 0.00 0.00 55 1011.1
20260507101448 59 75 0.0 4.3 0.00 0.00 0.00 55 1011.1
20260507095918 59 120 0.0 1.7 0.00 0.00 0.00 56 1011.3
20260507094451 57 248 0.0 3.5 0.00 0.00 0.00 61 1011.3
20260507092930 56 217 0.9 2.6 0.00 0.00 0.00 59 1011.4
20260507091420 56 215 0.0 2.6 0.00 0.00 0.00 63 1011.5
20260507085932 55 239 0.9 3.5 0.00 0.00 0.00 65 1011.4
20260507084425 55 194 0.0 0.9 0.00 0.00 0.00 66 1011.6
20260507082916 54 49 0.0 0.9 0.00 0.00 0.00 65 1011.6
20260507081429 53 121 0.0 3.5 0.00 0.00 0.00 70 1011.7
20260507075919 51 273 0.0 0.0 0.00 0.00 0.00 78 1011.7
20260507074430 48 238 0.0 0.0 0.00 0.00 0.00 86 1011.7
20260507072921 46 208 0.0 0.0 0.00 0.00 0.00 89 1011.8
20260507071434 44 207 0.0 0.9 0.00 0.00 0.00 90 1011.9
20260507065923 43 208 0.0 0.9 0.00 0.00 0.00 91 1011.9
20260507064416 43 179 0.0 0.0 0.00 0.00 0.00 91 1012.0
20260507062925 42 179 0.0 0.9 0.00 0.00 0.00 92 1012.1
20260507061437 40 186 0.0 0.0 0.00 0.00 0.00 93 1012.1